Weather History for Ponca City, OK

Change the Weather History Date:

Wednesday, October 3, 2012

  Actual Average Record
Temperature  
Mean Temperature 64 °F -  
Max Temperature 82 °F 84 °F 97 °F (1951)
Min Temperature 45 °F 58 °F 35 °F (2010)
Degree Days  
Heating Degree Days 2    
Growing Degree Days 14 (Base 50)    
Moisture  
Dew Point 45 °F    
Average Humidity 50    
Maximum Humidity 83    
Minimum Humidity 25    
Precipitation  
Precipitation 0.00 in - - ()
Sea Level Pressure  
Sea Level Pressure 29.91 in    
Wind  
Wind Speed 3 mph (South)    
Max Wind Speed 10 mph    
Max Gust Speed 18 mph    
Visibility 10 miles    
Events      
Averages and records for this station are not official NWS values.
T = Trace of Precipitation, MM = Missing Value Source: NWS Daily Summary

Daily Weather History Graph

Daily Weather History Graph

Search for Another Location

Airport:

Trip Planner

Search our weather history database for the weather conditions in past years. The results will help you decide how hot, cold, wet, or windy it might be!

Date:

Astronomy

Oct. 03, 2012 Rise Set
Actual Time 7:25 AM CDT 7:08 PM CDT
Civil Twilight 6:59 AM CDT 7:33 PM CDT
Nautical Twilight 6:29 AM CDT 8:03 PM CDT
Astronomical Twilight 5:59 AM CDT 8:33 PM CDT
Moon 9:07 PM CDT (10/3) 10:43 AM CDT (10/3)
Length of Visible Light 12h 33m
Length of Day
11h 42m
Waning Gibbous, 88% of the Moon is Illuminated
Oct 3
Waning Gibbous
Oct 8
Last Quarter
Oct 15
New
Oct 21
First Quarter
Oct 29
Full

Hourly Weather History & Observations

Time (CDT) Temp. Dew Point Humidity Pressure Visibility Wind Dir Wind Speed Gust Speed Precip Events Conditions
12:53 AM 57.0 °F 41.0 °F 55% 29.91 in 10.0 mi Calm Calm - N/A   Clear
1:53 AM 48.9 °F 42.1 °F 77% 29.91 in 10.0 mi Calm Calm - N/A   Clear
2:53 AM 48.0 °F 42.1 °F 80% 29.92 in 10.0 mi Calm Calm - N/A   Clear
3:53 AM 48.9 °F 39.9 °F 71% 29.92 in 10.0 mi Calm Calm - N/A   Clear
4:53 AM 46.4 °F 39.2 °F 76% 29.94 in 10.0 mi Calm Calm - N/A   Clear
5:53 AM 46.0 °F 41.0 °F 83% 29.93 in 10.0 mi Calm Calm - N/A   Clear
6:53 AM 45.0 °F 39.9 °F 82% 29.94 in 10.0 mi Calm Calm - N/A   Clear
7:53 AM 48.9 °F 41.0 °F 74% 29.94 in 10.0 mi SE 3.5 mph - N/A   Clear
8:53 AM 59.0 °F 46.0 °F 62% 29.96 in 10.0 mi SSE 3.5 mph - N/A   Clear
9:53 AM 66.9 °F 46.0 °F 47% 29.96 in 10.0 mi South 6.9 mph - N/A   Clear
10:53 AM 73.0 °F 46.0 °F 38% 29.95 in 10.0 mi Variable 4.6 mph - N/A   Clear
11:53 AM 77.0 °F 42.1 °F 29% 29.94 in 10.0 mi SSW 10.4 mph 17.3 mph N/A   Clear
12:53 PM 80.1 °F 41.0 °F 25% 29.91 in 10.0 mi South 8.1 mph - N/A   Clear
1:53 PM 80.1 °F 41.0 °F 25% 29.88 in 10.0 mi South 10.4 mph 18.4 mph N/A   Clear
2:53 PM 82.0 °F 43.0 °F 25% 29.86 in 10.0 mi SSW 9.2 mph 18.4 mph N/A   Clear
3:53 PM 82.0 °F 44.1 °F 26% 29.85 in 10.0 mi SSW 8.1 mph 16.1 mph N/A   Clear
4:53 PM 82.0 °F 45.0 °F 27% 29.85 in 10.0 mi South 8.1 mph - N/A   Clear
5:53 PM 80.1 °F 46.9 °F 31% 29.86 in 10.0 mi South 8.1 mph - N/A   Clear
6:53 PM 78.1 °F 48.9 °F 36% 29.87 in 10.0 mi South 5.8 mph - N/A   Clear
7:53 PM 75.0 °F 50.0 °F 41% 29.89 in 10.0 mi South 5.8 mph - N/A   Clear
8:53 PM 73.9 °F 51.1 °F 45% 29.90 in 10.0 mi South 8.1 mph - N/A   Clear
9:53 PM 71.6 °F 50.0 °F 46% 29.94 in 10.0 mi South 10.4 mph - N/A   Clear
10:53 PM 71.1 °F 51.1 °F 49% 29.92 in 10.0 mi South 10.4 mph 17.3 mph N/A   Clear
11:53 PM 70.0 °F 51.1 °F 51% 29.93 in 10.0 mi South 8.1 mph - N/A   Clear